595  
ASUS41 KPHI 260713  
RWRPHI  
 
REGIONAL WEATHER ROUNDUP  
NATIONAL WEATHER SERVICE MOUNT HOLLY NJ  
300 AM EDT THU APR 26 2018  
 
NOTE: "FAIR" INDICATES FEW OR NO CLOUDS BELOW 12,000 FEET WITH NO  
SIGNIFICANT WEATHER AND/OR S TO VISIBILITY
.  
 
* = STATION DOES NOT REPORT PRECIPITATION (E.G. RAIN, SNOW, ETC.)  
OR FOG.
 
 
NJZ015>026-260800-  
SOUTHERN NEW JERSEY  
 
CITY SKY/WX TMP DP RH WIND PRES REMARKS
 
POMONA MOCLDY 59 58 96 NW12 29.62F  
WILDWOOD* FAIR 57 55 93 W9 29.67R  
MILLVILLE MOCLDY 59 54 83 W10 29.65S  
WRIGHTSTOWN CLOUDY 59 56 92 NW10 29.60F  
MOUNT HOLLY CLOUDY 59 55 87 W7 29.63S  
TRENTON CLOUDY 59 55 87 NW7 29.62F  
 

 
NJZ001>014-260800-  
NORTHERN NEW JERSEY  
 
CITY SKY/WX TMP DP RH WIND PRES REMARKS
 
SUSSEX MOCLDY 57 52 83 MISG 29.63R  
ANDOVER* N/A 56 53 90 CALM 29.63S  
MORRISTOWN CLOUDY 57 57 100 CALM 29.61F  
NEWARK CLOUDY 56 56 100 W8 29.60F FOG  
TETERBORO FOG 56 56 100 CALM 29.59F VSB 1/2  
CALDWELL CLOUDY 57 57 100 CALM 29.61F FOG  
SOMERVILLE CLOUDY 57 57 100 CALM 29.60S  
ALLAIRE* CLOUDY 57 56 96 MISG N/A FOG  
TOMS RIVER* CLOUDY 59 58 96 NW13 29.61F  
 

 
PAZ043-044-047-054-055-060>062-066>071-260800-  
EASTERN PENNSYLVANIA  
 
CITY SKY/WX TMP DP RH WIND PRES REMARKS
 
PHILADELPHIA MOCLDY 60 51 72 NW12 29.66S  
NORTH PHILA MOCLDY 61 54 77 NW9 29.65S  
BLUE BELL* FAIR 55 52 88 W7 29.67S  
DOYLESTOWN CLOUDY 57 53 86 W10 29.63F  
QUAKERTOWN* CLOUDY 57 52 82 VRB6G13 29.66S  
PERKASIE* CLOUDY 55 54 94 NW15G24 29.66S  
POTTSTOWN FAIR 55 51 86 NW9 29.67F  
LANCASTER FAIR 51 41 68 NW17 29.71R  
COATESVILLE FAIR 54 48 82 NW14G22 29.69S  
READING FAIR 54 48 80 NW13 29.68S  
ALLENTOWN CLOUDY 58 49 72 W6 29.65F  
MOUNT POCONO CLOUDY 48 47 96 NW15G25 29.64S  
HAZLETON CLOUDY 50 46 87 W9 29.71S  
LEHIGHTON CLOUDY 55 48 76 CALM 29.68S  
WILKES BARRE CLOUDY 52 48 86 NW8 29.67S  
 

 
DEZALL-MDZ008-012-015-019-020-260800-  
DELAWARE AND EASTERN MARYLAND  
 
CITY SKY/WX TMP DP RH WIND PRES REMARKS
 
WILMINGTON FAIR 57 51 80 NW13 29.67S  
DOVER FAIR 59 53 83 W10 29.67S  
GEORGETOWN FAIR 59 56 89 W8 29.69R  
ABERDEEN FAIR 57 48 73 NW8 29.71R  
PATUXENT FAIR N/A N/A N/A W10 29.74  
OCEAN CITY FAIR 58 58 100 W8 29.70R  
WALLOPS ISLAND FAIR 59 58 96 W13 29.71S  
CAMBRIDGE MOCLDY 59 54 82 W6G14 29.73R  
SALISBURY CLOUDY 59 57 93 W9 29.71R  
 

 
PAZ001-021-NYZ056-072-MDZ011-DCZ001-260800-  
OTHER NEARBY LOCATIONS  
 
CITY SKY/WX TMP DP RH WIND PRES REMARKS
 
HARRISBURG FAIR 50 39 66 NW18G24 29.73S  
STATE COLLEGE CLOUDY 44 37 74 W9 29.78S  
WILLIAMSPORT FAIR 48 37 65 NW13 29.72F  
BINGHAMTON CLOUDY 45 43 93 W10 29.66F  
NEW YORK CITY CLOUDY 56 55 97 W3 29.62 FOG  
BALTIMORE FAIR 54 46 74 W20G26 29.73R  
WASHINGTON DC FAIR 57 45 64 NW16 29.78R  
 

 
 
 
CLICK HERE TO GO TO PREVIOUS BULLETINS.

The Nexlab PA Page
The Nexlab NJ Page
The Nexlab DE Page
The Nexlab MD Page Main Text Page